owner,sensor,date,latitude,longitude,vertical_datum,mass_concentration_of_oxygen_in_sea_water,qcFlag 
SCCF RECON,ioos:station:SCCF:18:1,2015-05-01T00:00:00Z,26.6955,-81.8138,1.419,5.93,1111122 
SCCF RECON,ioos:station:SCCF:18:1,2015-05-01T01:00:00Z,26.6955,-81.8138,1.37,6.0,1111122 
SCCF RECON,ioos:station:SCCF:18:1,2015-05-01T02:00:00Z,26.6955,-81.8138,1.34,5.91,1111122 
SCCF RECON,ioos:station:SCCF:18:1,2015-05-01T03:00:00Z,26.6955,-81.8138,1.34,5.84,1111122 
SCCF RECON,ioos:station:SCCF:18:1,2015-05-01T04:00:00Z,26.6955,-81.8138,1.37,5.72,1111122 
SCCF RECON,ioos:station:SCCF:18:1,2015-05-01T05:00:00Z,26.6955,-81.8138,1.449,5.54,1111122 
SCCF RECON,ioos:station:SCCF:18:1,2015-05-01T06:00:00Z,26.6955,-81.8138,1.497,5.5,1111122 
SCCF RECON,ioos:station:SCCF:18:1,2015-05-01T07:00:00Z,26.6955,-81.8138,1.518,5.58,1111122 
SCCF RECON,ioos:station:SCCF:18:1,2015-05-01T08:00:00Z,26.6955,-81.8138,1.51,5.45,1111122 
SCCF RECON,ioos:station:SCCF:18:1,2015-05-01T09:00:00Z,26.6955,-81.8138,1.469,5.56,1111122 
SCCF RECON,ioos:station:SCCF:18:1,2015-05-01T10:00:00Z,26.6955,-81.8138,1.41,5.47,1111122 
SCCF RECON,ioos:station:SCCF:18:1,2015-05-01T11:00:00Z,26.6955,-81.8138,1.37,5.46,1111122 
SCCF RECON,ioos:station:SCCF:18:1,2015-05-01T12:00:00Z,26.6955,-81.8138,1.35,5.41,1111122 
SCCF RECON,ioos:station:SCCF:18:1,2015-05-01T13:00:00Z,26.6955,-81.8138,1.32,5.23,1111122 
SCCF RECON,ioos:station:SCCF:18:1,2015-05-01T14:00:00Z,26.6955,-81.8138,1.3,5.25,1111122 
SCCF RECON,ioos:station:SCCF:18:1,2015-05-01T15:00:00Z,26.6955,-81.8138,1.369,5.43,1111122 
SCCF RECON,ioos:station:SCCF:18:1,2015-05-01T16:00:00Z,26.6955,-81.8138,1.46,5.42,1111122 
SCCF RECON,ioos:station:SCCF:18:1,2015-05-01T17:00:00Z,26.6955,-81.8138,1.54,5.98,1111122 
SCCF RECON,ioos:station:SCCF:18:1,2015-05-01T18:00:00Z,26.6955,-81.8138,1.599,5.8,1111122 
SCCF RECON,ioos:station:SCCF:18:1,2015-05-01T19:00:00Z,26.6955,-81.8138,1.64,5.95,1111122 
SCCF RECON,ioos:station:SCCF:18:1,2015-05-01T20:00:00Z,26.6955,-81.8138,1.652,5.97,1111122 
SCCF RECON,ioos:station:SCCF:18:1,2015-05-01T21:00:00Z,26.6955,-81.8138,1.607,6.1,1111122 
SCCF RECON,ioos:station:SCCF:18:1,2015-05-01T22:00:00Z,26.6955,-81.8138,1.535,5.94,1111122 
SCCF RECON,ioos:station:SCCF:18:1,2015-05-01T23:00:00Z,26.6955,-81.8138,1.48,5.81,1111122 
SCCF RECON,ioos:station:SCCF:18:1,2015-05-02T00:00:00Z,26.6955,-81.8138,1.43,6.32,1111122 
SCCF RECON,ioos:station:SCCF:18:1,2015-05-02T01:00:00Z,26.6955,-81.8138,1.39,6.23,1111122 
SCCF RECON,ioos:station:SCCF:18:1,2015-05-02T02:00:00Z,26.6955,-81.8138,1.35,6.33,1111122 
SCCF RECON,ioos:station:SCCF:18:1,2015-05-02T03:00:00Z,26.6955,-81.8138,1.31,6.33,1111122 
SCCF RECON,ioos:station:SCCF:18:1,2015-05-02T04:00:00Z,26.6955,-81.8138,1.31,6.2,1111122 
SCCF RECON,ioos:station:SCCF:18:1,2015-05-02T05:00:00Z,26.6955,-81.8138,1.38,5.55,1111122 
SCCF RECON,ioos:station:SCCF:18:1,2015-05-02T06:00:00Z,26.6955,-81.8138,1.45,5.79,1111122 
SCCF RECON,ioos:station:SCCF:18:1,2015-05-02T07:00:00Z,26.6955,-81.8138,1.49,5.87,1111122 
SCCF RECON,ioos:station:SCCF:18:1,2015-05-02T08:00:00Z,26.6955,-81.8138,1.5,5.81,1111122 
SCCF RECON,ioos:station:SCCF:18:1,2015-05-02T09:00:00Z,26.6955,-81.8138,1.49,5.54,1111122 
SCCF RECON,ioos:station:SCCF:18:1,2015-05-02T10:00:00Z,26.6955,-81.8138,1.43,5.7,1111122 
SCCF RECON,ioos:station:SCCF:18:1,2015-05-02T11:00:00Z,26.6955,-81.8138,1.37,5.48,1111122 
SCCF RECON,ioos:station:SCCF:18:1,2015-05-02T12:00:00Z,26.6955,-81.8138,1.33,5.27,1111122 
SCCF RECON,ioos:station:SCCF:18:1,2015-05-02T13:00:00Z,26.6955,-81.8138,1.3,5.42,1111122 
SCCF RECON,ioos:station:SCCF:18:1,2015-05-02T14:00:00Z,26.6955,-81.8138,1.26,5.44,1111122 
SCCF RECON,ioos:station:SCCF:18:1,2015-05-02T15:00:00Z,26.6955,-81.8138,1.24,5.43,1111122 
SCCF RECON,ioos:station:SCCF:18:1,2015-05-02T16:00:00Z,26.6955,-81.8138,1.31,5.61,1111122 
SCCF RECON,ioos:station:SCCF:18:1,2015-05-02T17:00:00Z,26.6955,-81.8138,1.405,5.9,1111122 
SCCF RECON,ioos:station:SCCF:18:1,2015-05-02T18:00:00Z,26.6955,-81.8138,1.49,7.0,1111122 
SCCF RECON,ioos:station:SCCF:18:1,2015-05-02T19:00:00Z,26.6955,-81.8138,1.53,6.19,1111122 
SCCF RECON,ioos:station:SCCF:18:1,2015-05-02T20:00:00Z,26.6955,-81.8138,1.559,6.07,1111122 
SCCF RECON,ioos:station:SCCF:18:1,2015-05-02T21:00:00Z,26.6955,-81.8138,1.55,6.65,1111122 
SCCF RECON,ioos:station:SCCF:18:1,2015-05-02T22:00:00Z,26.6955,-81.8138,1.48,7.22,1111122 
SCCF RECON,ioos:station:SCCF:18:1,2015-05-02T23:00:00Z,26.6955,-81.8138,1.41,6.39,1111122 
SCCF RECON,ioos:station:SCCF:18:1,2015-05-03T00:00:00Z,26.6955,-81.8138,1.376,6.79,1111122 
SCCF RECON,ioos:station:SCCF:18:1,2015-05-03T01:00:00Z,26.6955,-81.8138,1.35,6.44,1111122 
SCCF RECON,ioos:station:SCCF:18:1,2015-05-03T02:00:00Z,26.6955,-81.8138,1.31,6.08,1111122 
SCCF RECON,ioos:station:SCCF:18:1,2015-05-03T03:00:00Z,26.6955,-81.8138,1.27,5.9,1111122 
SCCF RECON,ioos:station:SCCF:18:1,2015-05-03T04:00:00Z,26.6955,-81.8138,1.27,5.96,1111122 
SCCF RECON,ioos:station:SCCF:18:1,2015-05-03T05:00:00Z,26.6955,-81.8138,1.34,5.82,1111122 
SCCF RECON,ioos:station:SCCF:18:1,2015-05-03T06:00:00Z,26.6955,-81.8138,1.42,5.57,1111122 
SCCF RECON,ioos:station:SCCF:18:1,2015-05-03T07:00:00Z,26.6955,-81.8138,1.46,5.84,1111122 
SCCF RECON,ioos:station:SCCF:18:1,2015-05-03T08:00:00Z,26.6955,-81.8138,1.51,5.82,1111122 
SCCF RECON,ioos:station:SCCF:18:1,2015-05-03T09:00:00Z,26.6955,-81.8138,1.55,5.62,1111122 
SCCF RECON,ioos:station:SCCF:18:1,2015-05-03T10:00:00Z,26.6955,-81.8138,1.53,5.65,1111122 
SCCF RECON,ioos:station:SCCF:18:1,2015-05-03T11:00:00Z,26.6955,-81.8138,1.461,5.46,1111122 
SCCF RECON,ioos:station:SCCF:18:1,2015-05-03T12:00:00Z,26.6955,-81.8138,1.409,5.11,1111122 
SCCF RECON,ioos:station:SCCF:18:1,2015-05-03T13:00:00Z,26.6955,-81.8138,1.37,5.04,1111122 
SCCF RECON,ioos:station:SCCF:18:1,2015-05-03T14:00:00Z,26.6955,-81.8138,1.34,5.12,1111122 
SCCF RECON,ioos:station:SCCF:18:1,2015-05-03T15:00:00Z,26.6955,-81.8138,1.329,5.39,1111122 
SCCF RECON,ioos:station:SCCF:18:1,2015-05-03T16:00:00Z,26.6955,-81.8138,1.39,5.49,1111122 
SCCF RECON,ioos:station:SCCF:18:1,2015-05-03T17:00:00Z,26.6955,-81.8138,1.48,5.59,1111122 
SCCF RECON,ioos:station:SCCF:18:1,2015-05-03T18:00:00Z,26.6955,-81.8138,1.547,6.33,1111122 
SCCF RECON,ioos:station:SCCF:18:1,2015-05-03T19:00:00Z,26.6955,-81.8138,1.58,6.55,1111122 
SCCF RECON,ioos:station:SCCF:18:1,2015-05-03T20:00:00Z,26.6955,-81.8138,1.62,7.09,1111122 
SCCF RECON,ioos:station:SCCF:18:1,2015-05-03T21:00:00Z,26.6955,-81.8138,1.62,7.02,1111122 
SCCF RECON,ioos:station:SCCF:18:1,2015-05-03T22:00:00Z,26.6955,-81.8138,1.58,6.46,1111122 
SCCF RECON,ioos:station:SCCF:18:1,2015-05-03T23:00:00Z,26.6955,-81.8138,1.51,6.12,1111122 
SCCF RECON,ioos:station:SCCF:18:1,2015-05-04T00:00:00Z,26.6955,-81.8138,1.45,5.98,1111122 
SCCF RECON,ioos:station:SCCF:18:1,2015-05-04T01:00:00Z,26.6955,-81.8138,1.41,6.06,1111122 
SCCF RECON,ioos:station:SCCF:18:1,2015-05-04T02:00:00Z,26.6955,-81.8138,1.377,5.98,1111122 
SCCF RECON,ioos:station:SCCF:18:1,2015-05-04T03:00:00Z,26.6955,-81.8138,1.331,5.81,1111122 
SCCF RECON,ioos:station:SCCF:18:1,2015-05-04T04:00:00Z,26.6955,-81.8138,1.3,5.73,1111122 
SCCF RECON,ioos:station:SCCF:18:1,2015-05-04T05:00:00Z,26.6955,-81.8138,1.32,5.61,1111122 
SCCF RECON,ioos:station:SCCF:18:1,2015-05-04T06:00:00Z,26.6955,-81.8138,1.382,5.77,1111122 
SCCF RECON,ioos:station:SCCF:18:1,2015-05-04T07:00:00Z,26.6955,-81.8138,1.46,5.91,1111122 
SCCF RECON,ioos:station:SCCF:18:1,2015-05-04T08:00:00Z,26.6955,-81.8138,1.503,5.95,1111122 
SCCF RECON,ioos:station:SCCF:18:1,2015-05-04T09:00:00Z,26.6955,-81.8138,1.53,5.95,1111122 
SCCF RECON,ioos:station:SCCF:18:1,2015-05-04T10:00:00Z,26.6955,-81.8138,1.53,5.86,1111122 
SCCF RECON,ioos:station:SCCF:18:1,2015-05-04T11:00:00Z,26.6955,-81.8138,1.49,5.72,1111122 
SCCF RECON,ioos:station:SCCF:18:1,2015-05-04T12:00:00Z,26.6955,-81.8138,1.436,5.44,1111122 
SCCF RECON,ioos:station:SCCF:18:1,2015-05-04T13:00:00Z,26.6955,-81.8138,1.4,5.24,1111122 
SCCF RECON,ioos:station:SCCF:18:1,2015-05-04T14:00:00Z,26.6955,-81.8138,1.37,5.44,1111122 
SCCF RECON,ioos:station:SCCF:18:1,2015-05-04T15:00:00Z,26.6955,-81.8138,1.354,5.56,1111122 
SCCF RECON,ioos:station:SCCF:18:1,2015-05-04T16:00:00Z,26.6955,-81.8138,1.381,5.95,1111122 
SCCF RECON,ioos:station:SCCF:18:1,2015-05-04T17:00:00Z,26.6955,-81.8138,1.441,6.74,1111122 
SCCF RECON,ioos:station:SCCF:18:1,2015-05-04T18:00:00Z,26.6955,-81.8138,1.467,6.74,1111122 
SCCF RECON,ioos:station:SCCF:18:1,2015-05-04T19:00:00Z,26.6955,-81.8138,1.52,6.45,1111122 
SCCF RECON,ioos:station:SCCF:18:1,2015-05-04T20:00:00Z,26.6955,-81.8138,1.58,6.93,1111122 
SCCF RECON,ioos:station:SCCF:18:1,2015-05-04T21:00:00Z,26.6955,-81.8138,1.595,6.53,1111122 
SCCF RECON,ioos:station:SCCF:18:1,2015-05-04T22:00:00Z,26.6955,-81.8138,1.55,6.68,1111122 
SCCF RECON,ioos:station:SCCF:18:1,2015-05-04T23:00:00Z,26.6955,-81.8138,1.48,6.75,1111122 
SCCF RECON,ioos:station:SCCF:18:1,2015-05-05T00:00:00Z,26.6955,-81.8138,1.42,6.54,1111122 
SCCF RECON,ioos:station:SCCF:18:1,2015-05-05T01:00:00Z,26.6955,-81.8138,1.39,6.44,1111122 
SCCF RECON,ioos:station:SCCF:18:1,2015-05-05T02:00:00Z,26.6955,-81.8138,1.36,6.31,1111122 
SCCF RECON,ioos:station:SCCF:18:1,2015-05-05T03:00:00Z,26.6955,-81.8138,1.32,6.24,1111122 
SCCF RECON,ioos:station:SCCF:18:1,2015-05-05T04:00:00Z,26.6955,-81.8138,1.27,6.13,1111122 
SCCF RECON,ioos:station:SCCF:18:1,2015-05-05T05:00:00Z,26.6955,-81.8138,1.24,6.09,1111122 
SCCF RECON,ioos:station:SCCF:18:1,2015-05-05T06:00:00Z,26.6955,-81.8138,1.278,6.06,1111122 
SCCF RECON,ioos:station:SCCF:18:1,2015-05-05T07:00:00Z,26.6955,-81.8138,1.34,6.11,1111122 
SCCF RECON,ioos:station:SCCF:18:1,2015-05-05T08:00:00Z,26.6955,-81.8138,1.4,6.06,1111122 
SCCF RECON,ioos:station:SCCF:18:1,2015-05-05T09:00:00Z,26.6955,-81.8138,1.44,6.12,1111122 
SCCF RECON,ioos:station:SCCF:18:1,2015-05-05T10:00:00Z,26.6955,-81.8138,1.48,6.12,1111122 
SCCF RECON,ioos:station:SCCF:18:1,2015-05-05T11:00:00Z,26.6955,-81.8138,1.5,6.15,1111122 
SCCF RECON,ioos:station:SCCF:18:1,2015-05-05T12:00:00Z,26.6955,-81.8138,1.46,6.13,1111122 
SCCF RECON,ioos:station:SCCF:18:1,2015-05-05T13:00:00Z,26.6955,-81.8138,1.41,6.0,1111122 
SCCF RECON,ioos:station:SCCF:18:1,2015-05-05T14:00:00Z,26.6955,-81.8138,1.379,5.97,1111122 
SCCF RECON,ioos:station:SCCF:18:1,2015-05-05T15:00:00Z,26.6955,-81.8138,1.35,6.06,1111122 
SCCF RECON,ioos:station:SCCF:18:1,2015-05-05T16:00:00Z,26.6955,-81.8138,1.347,6.18,1111122 
SCCF RECON,ioos:station:SCCF:18:1,2015-05-05T17:00:00Z,26.6955,-81.8138,1.42,6.23,1111122 
SCCF RECON,ioos:station:SCCF:18:1,2015-05-05T18:00:00Z,26.6955,-81.8138,1.507,6.48,1111122 
SCCF RECON,ioos:station:SCCF:18:1,2015-05-05T19:00:00Z,26.6955,-81.8138,1.57,7.09,1111122 
SCCF RECON,ioos:station:SCCF:18:1,2015-05-05T20:00:00Z,26.6955,-81.8138,1.619,7.01,1111122 
SCCF RECON,ioos:station:SCCF:18:1,2015-05-05T21:00:00Z,26.6955,-81.8138,1.655,6.94,1111122 
SCCF RECON,ioos:station:SCCF:18:1,2015-05-05T22:00:00Z,26.6955,-81.8138,1.67,7.21,1111122 
SCCF RECON,ioos:station:SCCF:18:1,2015-05-05T23:00:00Z,26.6955,-81.8138,1.62,6.89,1111122 
SCCF RECON,ioos:station:SCCF:18:1,2015-05-06T00:00:00Z,26.6955,-81.8138,1.54,6.68,1111122 
SCCF RECON,ioos:station:SCCF:18:1,2015-05-06T01:00:00Z,26.6955,-81.8138,1.476,6.63,1111122 
SCCF RECON,ioos:station:SCCF:18:1,2015-05-06T02:00:00Z,26.6955,-81.8138,1.43,6.56,1111122 
SCCF RECON,ioos:station:SCCF:18:1,2015-05-06T03:00:00Z,26.6955,-81.8138,1.38,6.45,1111122 
SCCF RECON,ioos:station:SCCF:18:1,2015-05-06T04:00:00Z,26.6955,-81.8138,1.33,6.49,1111122 
SCCF RECON,ioos:station:SCCF:18:1,2015-05-06T05:00:00Z,26.6955,-81.8138,1.29,6.45,1111122 
SCCF RECON,ioos:station:SCCF:18:1,2015-05-06T06:00:00Z,26.6955,-81.8138,1.3,6.24,1111122 
SCCF RECON,ioos:station:SCCF:18:1,2015-05-06T07:00:00Z,26.6955,-81.8138,1.36,6.3,1111122 
SCCF RECON,ioos:station:SCCF:18:1,2015-05-06T08:00:00Z,26.6955,-81.8138,1.43,6.13,1111122 
SCCF RECON,ioos:station:SCCF:18:1,2015-05-06T09:00:00Z,26.6955,-81.8138,1.47,6.07,1111122 
SCCF RECON,ioos:station:SCCF:18:1,2015-05-06T10:00:00Z,26.6955,-81.8138,1.52,6.18,1111122 
SCCF RECON,ioos:station:SCCF:18:1,2015-05-06T11:00:00Z,26.6955,-81.8138,1.57,6.13,1111122 
SCCF RECON,ioos:station:SCCF:18:1,2015-05-06T12:00:00Z,26.6955,-81.8138,1.57,6.16,1111122 
SCCF RECON,ioos:station:SCCF:18:1,2015-05-06T13:00:00Z,26.6955,-81.8138,1.54,6.15,1111122 
SCCF RECON,ioos:station:SCCF:18:1,2015-05-06T14:00:00Z,26.6955,-81.8138,1.5,6.16,1111122 
SCCF RECON,ioos:station:SCCF:18:1,2015-05-06T15:00:00Z,26.6955,-81.8138,1.46,6.19,1111122 
SCCF RECON,ioos:station:SCCF:18:1,2015-05-06T16:00:00Z,26.6955,-81.8138,1.43,6.45,1111122 
SCCF RECON,ioos:station:SCCF:18:1,2015-05-06T17:00:00Z,26.6955,-81.8138,1.473,6.36,1111122 
SCCF RECON,ioos:station:SCCF:18:1,2015-05-06T18:00:00Z,26.6955,-81.8138,1.57,6.53,1111122 
SCCF RECON,ioos:station:SCCF:18:1,2015-05-06T19:00:00Z,26.6955,-81.8138,1.667,6.74,1111122 
SCCF RECON,ioos:station:SCCF:18:1,2015-05-06T20:00:00Z,26.6955,-81.8138,1.712,6.88,1111122 
SCCF RECON,ioos:station:SCCF:18:1,2015-05-06T21:00:00Z,26.6955,-81.8138,1.787,6.85,1111122 
SCCF RECON,ioos:station:SCCF:18:1,2015-05-06T22:00:00Z,26.6955,-81.8138,1.81,6.81,1111122 
SCCF RECON,ioos:station:SCCF:18:1,2015-05-06T23:00:00Z,26.6955,-81.8138,1.78,7.02,1111122 
SCCF RECON,ioos:station:SCCF:18:1,2015-05-07T00:00:00Z,26.6955,-81.8138,1.69,6.99,1111122 
SCCF RECON,ioos:station:SCCF:18:1,2015-05-07T01:00:00Z,26.6955,-81.8138,1.61,6.95,1111122 
SCCF RECON,ioos:station:SCCF:18:1,2015-05-07T02:00:00Z,26.6955,-81.8138,1.56,7.02,1111122 
SCCF RECON,ioos:station:SCCF:18:1,2015-05-07T03:00:00Z,26.6955,-81.8138,1.51,6.8,1111122 
SCCF RECON,ioos:station:SCCF:18:1,2015-05-07T04:00:00Z,26.6955,-81.8138,1.45,6.71,1111122 
SCCF RECON,ioos:station:SCCF:18:1,2015-05-07T05:00:00Z,26.6955,-81.8138,1.39,6.64,1111122 
SCCF RECON,ioos:station:SCCF:18:1,2015-05-07T06:00:00Z,26.6955,-81.8138,1.34,6.5,1111122 
SCCF RECON,ioos:station:SCCF:18:1,2015-05-07T07:00:00Z,26.6955,-81.8138,1.33,6.29,1111122 
SCCF RECON,ioos:station:SCCF:18:1,2015-05-07T08:00:00Z,26.6955,-81.8138,1.39,6.19,1111122 
SCCF RECON,ioos:station:SCCF:18:1,2015-05-07T09:00:00Z,26.6955,-81.8138,1.471,6.07,1111122 
SCCF RECON,ioos:station:SCCF:18:1,2015-05-07T10:00:00Z,26.6955,-81.8138,1.54,6.05,1111122 
SCCF RECON,ioos:station:SCCF:18:1,2015-05-07T11:00:00Z,26.6955,-81.8138,1.59,6.08,1111122 
SCCF RECON,ioos:station:SCCF:18:1,2015-05-07T12:00:00Z,26.6955,-81.8138,1.622,6.0,1111122 
SCCF RECON,ioos:station:SCCF:18:1,2015-05-07T13:00:00Z,26.6955,-81.8138,1.62,5.98,1111122 
SCCF RECON,ioos:station:SCCF:18:1,2015-05-07T14:00:00Z,26.6955,-81.8138,1.57,6.07,1111122 
SCCF RECON,ioos:station:SCCF:18:1,2015-05-07T15:00:00Z,26.6955,-81.8138,1.525,6.25,1111122 
SCCF RECON,ioos:station:SCCF:18:1,2015-05-07T17:00:00Z,26.6955,-81.8138,1.541,6.44,1111122 
SCCF RECON,ioos:station:SCCF:18:1,2015-05-07T18:00:00Z,26.6955,-81.8138,1.632,7.12,1111122 
SCCF RECON,ioos:station:SCCF:18:1,2015-05-07T19:00:00Z,26.6955,-81.8138,1.732,7.06,1111122 
SCCF RECON,ioos:station:SCCF:18:1,2015-05-07T20:00:00Z,26.6955,-81.8138,1.789,6.93,1111122 
SCCF RECON,ioos:station:SCCF:18:1,2015-05-07T21:00:00Z,26.6955,-81.8138,1.823,6.9,1111122 
SCCF RECON,ioos:station:SCCF:18:1,2015-05-07T22:00:00Z,26.6955,-81.8138,1.862,7.11,1111122 
SCCF RECON,ioos:station:SCCF:18:1,2015-05-07T23:00:00Z,26.6955,-81.8138,1.87,7.14,1111122 
SCCF RECON,ioos:station:SCCF:18:1,2015-05-08T00:00:00Z,26.6955,-81.8138,1.8,7.04,1111122 
SCCF RECON,ioos:station:SCCF:18:1,2015-05-08T01:00:00Z,26.6955,-81.8138,1.716,6.94,1111122 
SCCF RECON,ioos:station:SCCF:18:1,2015-05-08T02:00:00Z,26.6955,-81.8138,1.649,7.18,1111122 
SCCF RECON,ioos:station:SCCF:18:1,2015-05-08T03:00:00Z,26.6955,-81.8138,1.593,7.07,1111122 
SCCF RECON,ioos:station:SCCF:18:1,2015-05-08T04:00:00Z,26.6955,-81.8138,1.53,6.98,1111122 
SCCF RECON,ioos:station:SCCF:18:1,2015-05-08T05:00:00Z,26.6955,-81.8138,1.47,7.1,1111122 
SCCF RECON,ioos:station:SCCF:18:1,2015-05-08T06:00:00Z,26.6955,-81.8138,1.41,7.01,1111122 
SCCF RECON,ioos:station:SCCF:18:1,2015-05-08T07:00:00Z,26.6955,-81.8138,1.37,6.83,1111122 
SCCF RECON,ioos:station:SCCF:18:1,2015-05-08T08:00:00Z,26.6955,-81.8138,1.39,6.52,1111122 
SCCF RECON,ioos:station:SCCF:18:1,2015-05-08T09:00:00Z,26.6955,-81.8138,1.45,6.08,1111122 
SCCF RECON,ioos:station:SCCF:18:1,2015-05-08T10:00:00Z,26.6955,-81.8138,1.52,6.21,1111122 
SCCF RECON,ioos:station:SCCF:18:1,2015-05-08T11:00:00Z,26.6955,-81.8138,1.58,6.05,1111122 
SCCF RECON,ioos:station:SCCF:18:1,2015-05-08T12:00:00Z,26.6955,-81.8138,1.619,6.01,1111122 
SCCF RECON,ioos:station:SCCF:18:1,2015-05-08T13:00:00Z,26.6955,-81.8138,1.64,5.98,1111122 
SCCF RECON,ioos:station:SCCF:18:1,2015-05-08T14:00:00Z,26.6955,-81.8138,1.641,6.05,1111122 
SCCF RECON,ioos:station:SCCF:18:1,2015-05-08T15:00:00Z,26.6955,-81.8138,1.6,6.32,1111122 
SCCF RECON,ioos:station:SCCF:18:1,2015-05-08T16:00:00Z,26.6955,-81.8138,1.55,6.72,1111122 
SCCF RECON,ioos:station:SCCF:18:1,2015-05-08T17:00:00Z,26.6955,-81.8138,1.51,6.66,1111122 
SCCF RECON,ioos:station:SCCF:18:1,2015-05-08T18:00:00Z,26.6955,-81.8138,1.537,6.71,1111122 
SCCF RECON,ioos:station:SCCF:18:1,2015-05-08T19:00:00Z,26.6955,-81.8138,1.64,7.28,1111122 
SCCF RECON,ioos:station:SCCF:18:1,2015-05-08T20:00:00Z,26.6955,-81.8138,1.73,7.58,1111122 
SCCF RECON,ioos:station:SCCF:18:1,2015-05-08T21:00:00Z,26.6955,-81.8138,1.79,7.43,1111122 
SCCF RECON,ioos:station:SCCF:18:1,2015-05-08T22:00:00Z,26.6955,-81.8138,1.833,7.17,1111122 
SCCF RECON,ioos:station:SCCF:18:1,2015-05-08T23:00:00Z,26.6955,-81.8138,1.86,6.78,1111122 
SCCF RECON,ioos:station:SCCF:18:1,2015-05-09T00:00:00Z,26.6955,-81.8138,1.841,6.99,1111122 
SCCF RECON,ioos:station:SCCF:18:1,2015-05-09T01:00:00Z,26.6955,-81.8138,1.77,7.04,1111122 
SCCF RECON,ioos:station:SCCF:18:1,2015-05-09T02:00:00Z,26.6955,-81.8138,1.69,7.36,1111122 
SCCF RECON,ioos:station:SCCF:18:1,2015-05-09T03:00:00Z,26.6955,-81.8138,1.63,7.14,1111122 
SCCF RECON,ioos:station:SCCF:18:1,2015-05-09T04:00:00Z,26.6955,-81.8138,1.583,7.46,1111122 
SCCF RECON,ioos:station:SCCF:18:1,2015-05-09T05:00:00Z,26.6955,-81.8138,1.522,7.4,1111122 
SCCF RECON,ioos:station:SCCF:18:1,2015-05-09T06:00:00Z,26.6955,-81.8138,1.46,7.3,1111122 
SCCF RECON,ioos:station:SCCF:18:1,2015-05-09T07:00:00Z,26.6955,-81.8138,1.41,7.32,1111122 
SCCF RECON,ioos:station:SCCF:18:1,2015-05-09T08:00:00Z,26.6955,-81.8138,1.39,7.27,1111122 
SCCF RECON,ioos:station:SCCF:18:1,2015-05-09T09:00:00Z,26.6955,-81.8138,1.43,7.07,1111122 
SCCF RECON,ioos:station:SCCF:18:1,2015-05-09T10:00:00Z,26.6955,-81.8138,1.51,6.65,1111122 
SCCF RECON,ioos:station:SCCF:18:1,2015-05-09T11:00:00Z,26.6955,-81.8138,1.579,6.66,1111122 
SCCF RECON,ioos:station:SCCF:18:1,2015-05-09T12:00:00Z,26.6955,-81.8138,1.632,6.47,1111122 
SCCF RECON,ioos:station:SCCF:18:1,2015-05-09T13:00:00Z,26.6955,-81.8138,1.67,6.46,1111122 
SCCF RECON,ioos:station:SCCF:18:1,2015-05-09T14:00:00Z,26.6955,-81.8138,1.66,6.76,1111122 
SCCF RECON,ioos:station:SCCF:18:1,2015-05-09T15:00:00Z,26.6955,-81.8138,1.62,6.62,1111122 
SCCF RECON,ioos:station:SCCF:18:1,2015-05-09T16:00:00Z,26.6955,-81.8138,1.56,7.26,1111122 
SCCF RECON,ioos:station:SCCF:18:1,2015-05-09T17:00:00Z,26.6955,-81.8138,1.52,7.28,1111122 
SCCF RECON,ioos:station:SCCF:18:1,2015-05-09T18:00:00Z,26.6955,-81.8138,1.516,7.21,1111122 
SCCF RECON,ioos:station:SCCF:18:1,2015-05-09T19:00:00Z,26.6955,-81.8138,1.55,6.95,1111122 
SCCF RECON,ioos:station:SCCF:18:1,2015-05-09T20:00:00Z,26.6955,-81.8138,1.63,8.35,1111122 
SCCF RECON,ioos:station:SCCF:18:1,2015-05-09T21:00:00Z,26.6955,-81.8138,1.7,7.71,1111122 
SCCF RECON,ioos:station:SCCF:18:1,2015-05-09T22:00:00Z,26.6955,-81.8138,1.75,6.73,1111122 
SCCF RECON,ioos:station:SCCF:18:1,2015-05-09T23:00:00Z,26.6955,-81.8138,1.78,7.68,1111122 
SCCF RECON,ioos:station:SCCF:18:1,2015-05-10T00:00:00Z,26.6955,-81.8138,1.8,7.42,1111122 
SCCF RECON,ioos:station:SCCF:18:1,2015-05-10T01:00:00Z,26.6955,-81.8138,1.77,7.89,1111122 
SCCF RECON,ioos:station:SCCF:18:1,2015-05-10T02:00:00Z,26.6955,-81.8138,1.69,7.91,1111122 
SCCF RECON,ioos:station:SCCF:18:1,2015-05-10T03:00:00Z,26.6955,-81.8138,1.623,8.34,1111122 
SCCF RECON,ioos:station:SCCF:18:1,2015-05-10T04:00:00Z,26.6955,-81.8138,1.57,8.14,1111122 
SCCF RECON,ioos:station:SCCF:18:1,2015-05-10T05:00:00Z,26.6955,-81.8138,1.52,8.24,1111122 
SCCF RECON,ioos:station:SCCF:18:1,2015-05-10T06:00:00Z,26.6955,-81.8138,1.47,8.31,1111122 
SCCF RECON,ioos:station:SCCF:18:1,2015-05-10T07:00:00Z,26.6955,-81.8138,1.41,8.3,1111122 
SCCF RECON,ioos:station:SCCF:18:1,2015-05-10T08:00:00Z,26.6955,-81.8138,1.37,8.17,1111122 
SCCF RECON,ioos:station:SCCF:18:1,2015-05-10T09:00:00Z,26.6955,-81.8138,1.35,8.18,1111122 
SCCF RECON,ioos:station:SCCF:18:1,2015-05-10T10:00:00Z,26.6955,-81.8138,1.39,7.84,1111122 
SCCF RECON,ioos:station:SCCF:18:1,2015-05-10T11:00:00Z,26.6955,-81.8138,1.471,7.42,1111122 
SCCF RECON,ioos:station:SCCF:18:1,2015-05-10T12:00:00Z,26.6955,-81.8138,1.549,7.26,1111122 
SCCF RECON,ioos:station:SCCF:18:1,2015-05-10T13:00:00Z,26.6955,-81.8138,1.6,7.23,1111122 
SCCF RECON,ioos:station:SCCF:18:1,2015-05-10T14:00:00Z,26.6955,-81.8138,1.63,7.09,1111122 
SCCF RECON,ioos:station:SCCF:18:1,2015-05-10T15:00:00Z,26.6955,-81.8138,1.66,7.56,1111122 
SCCF RECON,ioos:station:SCCF:18:1,2015-05-10T16:00:00Z,26.6955,-81.8138,1.65,8.56,1111122 
SCCF RECON,ioos:station:SCCF:18:1,2015-05-10T17:00:00Z,26.6955,-81.8138,1.61,9.65,1111122 
SCCF RECON,ioos:station:SCCF:18:1,2015-05-10T18:00:00Z,26.6955,-81.8138,1.55,11.11,1111122 
SCCF RECON,ioos:station:SCCF:18:1,2015-05-10T19:00:00Z,26.6955,-81.8138,1.52,9.91,1111122 
SCCF RECON,ioos:station:SCCF:18:1,2015-05-10T20:00:00Z,26.6955,-81.8138,1.544,7.72,1111122 
SCCF RECON,ioos:station:SCCF:18:1,2015-05-10T21:00:00Z,26.6955,-81.8138,1.57,9.15,1111122 
SCCF RECON,ioos:station:SCCF:18:1,2015-05-10T22:00:00Z,26.6955,-81.8138,1.62,8.64,1111122 
SCCF RECON,ioos:station:SCCF:18:1,2015-05-10T23:00:00Z,26.6955,-81.8138,1.701,8.79,1111122 
SCCF RECON,ioos:station:SCCF:18:1,2015-05-11T00:00:00Z,26.6955,-81.8138,1.75,8.2,1111122 
SCCF RECON,ioos:station:SCCF:18:1,2015-05-11T01:00:00Z,26.6955,-81.8138,1.75,8.55,1111122 
SCCF RECON,ioos:station:SCCF:18:1,2015-05-11T02:00:00Z,26.6955,-81.8138,1.74,8.46,1111122 
SCCF RECON,ioos:station:SCCF:18:1,2015-05-11T03:00:00Z,26.6955,-81.8138,1.69,8.77,1111122 
SCCF RECON,ioos:station:SCCF:18:1,2015-05-11T04:00:00Z,26.6955,-81.8138,1.63,8.59,1111122 
SCCF RECON,ioos:station:SCCF:18:1,2015-05-11T05:00:00Z,26.6955,-81.8138,1.569,7.5,1111122 
SCCF RECON,ioos:station:SCCF:18:1,2015-05-11T06:00:00Z,26.6955,-81.8138,1.512,8.62,1111122 
SCCF RECON,ioos:station:SCCF:18:1,2015-05-11T07:00:00Z,26.6955,-81.8138,1.46,7.88,1111122 
SCCF RECON,ioos:station:SCCF:18:1,2015-05-11T08:00:00Z,26.6955,-81.8138,1.41,8.15,1111122 
SCCF RECON,ioos:station:SCCF:18:1,2015-05-11T09:00:00Z,26.6955,-81.8138,1.36,7.95,1111122 
SCCF RECON,ioos:station:SCCF:18:1,2015-05-11T10:00:00Z,26.6955,-81.8138,1.35,7.95,1111122 
SCCF RECON,ioos:station:SCCF:18:1,2015-05-11T11:00:00Z,26.6955,-81.8138,1.39,7.62,1111122 
SCCF RECON,ioos:station:SCCF:18:1,2015-05-11T12:00:00Z,26.6955,-81.8138,1.47,7.68,1111122 
SCCF RECON,ioos:station:SCCF:18:1,2015-05-11T13:00:00Z,26.6955,-81.8138,1.54,7.62,1111122 
SCCF RECON,ioos:station:SCCF:18:1,2015-05-11T14:00:00Z,26.6955,-81.8138,1.6,7.64,1111122 
SCCF RECON,ioos:station:SCCF:18:1,2015-05-11T15:00:00Z,26.6955,-81.8138,1.64,7.91,1111122 
SCCF RECON,ioos:station:SCCF:18:1,2015-05-11T16:00:00Z,26.6955,-81.8138,1.66,8.79,1111122 
SCCF RECON,ioos:station:SCCF:18:1,2015-05-11T17:00:00Z,26.6955,-81.8138,1.65,9.92,1111122 
SCCF RECON,ioos:station:SCCF:18:1,2015-05-11T18:00:00Z,26.6955,-81.8138,1.595,10.23,1111122 
SCCF RECON,ioos:station:SCCF:18:1,2015-05-11T19:00:00Z,26.6955,-81.8138,1.532,10.99,1111122 
SCCF RECON,ioos:station:SCCF:18:1,2015-05-11T20:00:00Z,26.6955,-81.8138,1.48,11.61,1111122 
SCCF RECON,ioos:station:SCCF:18:1,2015-05-11T21:00:00Z,26.6955,-81.8138,1.46,10.4,1111122 
SCCF RECON,ioos:station:SCCF:18:1,2015-05-11T22:00:00Z,26.6955,-81.8138,1.49,10.2,1111122 